Hourly Data Report for December 10, 2020

SHEARWATER RCS
NOVA SCOTIA
Current Station Operator: ECCC - MSC

44°37'47.000" N
63°30'48.000" W
24.00 m
8205092
71264
AAW

Download Data

Hourly Data (December 2020)
Hourly Data Report for December 10, 2020
TIME
LST
Temp Definition
°C
Dew Point Definition
°C
Rel Hum Definition
%
Precip. Amount Definition
mm

Wind Dir Definition
10's deg

Wind Spd Definition
km/h
Visibility Definition
km
Stn Press Definition
kPa
Hmdx Definition


Wind Chill Definition


Weather Definition


00:00 1.0 -2.6 77 0.0 5 8   100.30     LegendNANA
01:00 1.4 -1.6 80 0.0 4 8   100.27     LegendNANA
02:00 1.6 -1.5 80 0.0 3 7   100.24     LegendNANA
03:00 1.6 -0.4 86 0.0 1 5   100.25     LegendNANA
04:00 1.1 -0.1 91 0.2 2 8   100.23     LegendNANA
05:00 1.1 0.3 94 0.5 1 9   100.21     LegendNANA
06:00 0.9 0.1 95 0.9 35 9   100.23     LegendNANA
07:00 1.0 0.3 95 0.8 1 11   100.25     LegendNANA
08:00 0.7 0.1 95 0.5 31 6   100.31     LegendNANA
09:00 0.9 0.3 96 0.5 33 11   100.35     LegendNANA
10:00 1.1 0.5 95 0.2 32 10   100.38     LegendNANA
11:00 1.9 0.9 94 0.0 34 13   100.36     LegendNANA
12:00 2.1 0.5 89 0.0 34 14   100.32     LegendNANA
13:00 2.2 0.4 88 0.0 34 14   100.33     LegendNANA
14:00 2.1 0.2 87 0.0 32 18   100.35     LegendNANA
15:00 1.9 0.0 87 0.0 33 18   100.42     LegendNANA
16:00 2.1 -0.5 83 0.0 33 14   100.50     LegendNANA
17:00 1.2 -2.0 79 0.0 31 12   100.60     LegendNANA
18:00 1.2 -1.0 85 0.0 32 15   100.68     LegendNANA
19:00 0.5 -1.8 85 0.0 33 12   100.77     LegendNANA
20:00 -0.2 -2.5 84 0.0 32 14   100.86   -4 LegendNANA
21:00 -0.1 -2.5 84 0.0 32 18   100.91   -5 LegendNANA
22:00 -0.7 -3.9 79 0.0 32 23   100.98   -7 LegendNANA
23:00 -0.7 -4.4 76 0.0 33 20   101.04   -6 LegendNANA

Notes on Data Quality.

Legend

  • E = Estimated
  • M = Missing
  • NA = Not Available*
  • [empty] = Indicates an unobserved value
Date modified: